STARLINK-35117

Last updated on Sun Oct 19 2025 00:02:05 GMT+0000 (Coordinated Universal Time)

1 65632U 25210L 25291.25003472 .00125377 00000+0 31062-2 0 9992 2 65632 53.1595 250.5944 0001823 93.9331 357.7797 15.39491279 6004
UTC large
Height (km)
Speed (km/s)
/
Latitude / Longitude
Inclination (degrees)
Orbital Period (minutes)
Azimuth
Elevation
Range (km)
Doppler Factor

Next 0 passes for location: London (51.5072 / 0.1276)

Sorry there are no passes over London.
STARLINK-35117